Weather History for Martinsburg, WV

Change the Weather History Date:

Tuesday, September 6, 2011

  Actual Average Record
Temperature  
Mean Temperature 62 °F 69 °F  
Max Temperature 63 °F 80 °F 100 °F (1998)
Min Temperature 60 °F 58 °F 45 °F (1962)
Degree Days  
Heating Degree Days 3 1  
Month to date heating degree days 3 6  
Since 1 July heating degree days 3 13  
Cooling Degree Days 0 5  
Month to date cooling degree days 38 32  
Year to date cooling degree days 1186 824  
Growing Degree Days 11 (Base 50)    
Moisture  
Dew Point 58 °F    
Average Humidity 94    
Maximum Humidity 97    
Minimum Humidity 90    
Precipitation  
Precipitation 1.30 in 0.11 in 3.15 in (1996)
Month to date precipitation 2.81 0.69  
Year to date precipitation 32.73 26.93  
Sea Level Pressure  
Sea Level Pressure 29.99 in    
Wind  
Wind Speed 8 mph (NNE)    
Max Wind Speed 14 mph    
Max Gust Speed 22 mph    
Visibility 6 miles    
Events Rain    
T = Trace of Precipitation, MM = Missing Value Source: NWS Daily Summary

Daily Weather History Graph

Daily Weather History Graph

Search for Another Location

Airport:

Trip Planner

Search our weather history database for the weather conditions in past years. The results will help you decide how hot, cold, wet, or windy it might be!

Date:

Astronomy

Sep. 06, 2011 Rise Set
Actual Time 6:44 AM EDT 7:35 PM EDT
Civil Twilight 6:17 AM EDT 8:02 PM EDT
Nautical Twilight 5:44 AM EDT 8:34 PM EDT
Astronomical Twilight 5:11 AM EDT 9:08 PM EDT
Moon 4:07 PM EDT (9/6) 12:58 AM EDT (9/6)
Length of Visible Light 13h 45m
Length of Day
12h 50m
Waxing Gibbous, 70% of the Moon is Illuminated
Sep 6
Waxing Gibbous
Sep 12
Full
Sep 20
Last Quarter
Sep 27
New
Oct 3
First Quarter

Hourly Weather History & Observations

Time (EDT) Temp. Dew Point Humidity Pressure Visibility Wind Dir Wind Speed Gust Speed Precip Events Conditions
12:04 AM 60.8 °F 59.0 °F 94% 29.91 in 10.0 mi North 6.9 mph - 0.00 in Rain Light Rain
12:53 AM 61.0 °F 57.9 °F 90% 29.94 in 10.0 mi NW 4.6 mph - 0.00 in Rain Light Rain
1:04 AM 60.8 °F 57.2 °F 88% 29.94 in 10.0 mi WNW 4.6 mph - 0.00 in Rain Light Rain
1:34 AM 60.8 °F 57.2 °F 88% 29.92 in 10.0 mi North 6.9 mph - 0.01 in Rain Light Rain
1:53 AM 61.0 °F 57.9 °F 90% 29.91 in 8.0 mi North 9.2 mph - 0.02 in Rain Light Rain
2:53 AM 61.0 °F 57.9 °F 90% 29.90 in 10.0 mi NNW 4.6 mph - 0.03 in Rain Light Rain
3:53 AM 61.0 °F 57.9 °F 90% 29.89 in 10.0 mi North 4.6 mph - 0.01 in   Overcast
4:53 AM 61.0 °F 57.9 °F 90% 29.91 in 10.0 mi North 4.6 mph - N/A   Overcast
5:06 AM 62.6 °F 57.2 °F 82% 29.93 in 10.0 mi North 6.9 mph - 0.00 in Rain Light Rain
5:53 AM 61.0 °F 57.9 °F 90% 29.95 in 7.0 mi NNW 3.5 mph - 0.06 in Rain Light Rain
6:53 AM 61.0 °F 57.9 °F 90% 29.96 in 10.0 mi North 8.1 mph - 0.02 in Rain Light Rain
7:53 AM 61.0 °F 57.9 °F 90% 29.98 in 3.0 mi NNE 6.9 mph - 0.04 in Rain Rain
8:53 AM 62.1 °F 57.9 °F 86% 29.98 in 10.0 mi NNE 8.1 mph - 0.00 in   Overcast
9:37 AM 62.6 °F 57.2 °F 82% 29.97 in 10.0 mi NE 10.4 mph - N/A   Overcast
9:48 AM 62.6 °F 57.2 °F 82% 29.98 in 10.0 mi NNE 10.4 mph - N/A   Overcast
9:53 AM 62.1 °F 59.0 °F 90% 29.97 in 10.0 mi NNE 8.1 mph - N/A   Overcast
10:02 AM 62.6 °F 59.0 °F 88% 29.98 in 10.0 mi NNE 8.1 mph - N/A   Overcast
10:34 AM 62.6 °F 57.2 °F 82% 29.99 in 10.0 mi NNE 5.8 mph - N/A   Overcast
10:53 AM 62.6 °F 57.2 °F 82% 30.00 in 5.0 mi North 5.8 mph - N/A Rain Light Rain
11:27 AM 62.6 °F 59.0 °F 88% 30.01 in 4.0 mi North 8.1 mph - 0.04 in Rain Light Rain
11:32 AM 62.6 °F 59.0 °F 88% 30.01 in 3.0 mi North 5.8 mph - 0.04 in Rain Rain
11:50 AM 62.6 °F 59.0 °F 88% 30.01 in 3.0 mi North 8.1 mph - 0.05 in Rain Light Rain
11:53 AM 62.1 °F 59.0 °F 90% 30.01 in 2.5 mi North 8.1 mph - 0.05 in Rain Light Rain
12:08 PM 62.6 °F 59.0 °F 88% 30.02 in 1.8 mi NNE 9.2 mph - 0.02 in Rain Light Rain
12:19 PM 62.6 °F 60.8 °F 94% 30.02 in 2.0 mi NNE 6.9 mph - 0.03 in Rain Light Rain
12:30 PM 62.6 °F 59.0 °F 88% 30.02 in 4.0 mi NNE 10.4 mph - 0.03 in Rain Light Rain
12:53 PM 62.1 °F 59.0 °F 90% 30.01 in 4.0 mi NE 10.4 mph - 0.03 in Rain Light Rain
1:01 PM 62.6 °F 59.0 °F 88% 30.02 in 2.5 mi NE 10.4 mph - 0.01 in Rain Light Rain
1:13 PM 62.6 °F 59.0 °F 88% 30.01 in 4.0 mi NE 12.7 mph - 0.01 in Rain Light Rain
1:20 PM 62.6 °F 59.0 °F 88% 30.01 in 4.0 mi NE 9.2 mph - 0.01 in Rain Light Rain
1:32 PM 62.6 °F 59.0 °F 88% 30.01 in 4.0 mi NE 10.4 mph 19.6 mph 0.02 in Rain Light Rain
1:53 PM 62.1 °F 60.1 °F 93% 30.01 in 5.0 mi NE 6.9 mph - 0.03 in Rain Light Rain
2:12 PM 62.6 °F 59.0 °F 88% 30.00 in 9.0 mi NE 9.2 mph - 0.01 in Rain Light Rain
2:30 PM 62.6 °F 59.0 °F 88% 30.01 in 10.0 mi NE 11.5 mph 21.9 mph 0.02 in Rain Light Rain
2:53 PM 62.1 °F 59.0 °F 90% 30.00 in 10.0 mi NE 9.2 mph - 0.03 in Rain Light Rain
3:28 PM 60.8 °F 57.2 °F 88% 29.99 in 1.8 mi NNE 9.2 mph - 0.09 in Rain Heavy Rain
3:40 PM 60.8 °F 57.2 °F 88% 29.99 in 3.0 mi NNE 6.9 mph - 0.13 in Rain Light Rain
3:53 PM 60.1 °F 57.9 °F 93% 30.00 in 3.0 mi North 5.8 mph - 0.16 in Rain Rain
3:55 PM 60.8 °F 57.2 °F 88% 30.00 in 2.5 mi North 6.9 mph - 0.01 in Rain Rain
4:03 PM 60.8 °F 57.2 °F 88% 29.99 in 2.5 mi North 5.8 mph - 0.04 in Rain Rain
4:18 PM 60.8 °F 57.2 °F 88% 29.99 in 4.0 mi North 5.8 mph - 0.07 in Rain Rain
4:36 PM 60.8 °F 57.2 °F 88% 30.00 in 5.0 mi North 9.2 mph - 0.11 in Rain Rain
4:53 PM 61.0 °F 59.0 °F 93% 30.00 in 10.0 mi North 6.9 mph - 0.12 in Rain Light Rain
5:25 PM 60.8 °F 59.0 °F 94% 29.99 in 10.0 mi NNE 9.2 mph - 0.03 in Rain Light Rain
5:53 PM 61.0 °F 59.0 °F 93% 29.99 in 6.0 mi NNE 12.7 mph 18.4 mph 0.03 in Rain Light Rain
6:06 PM 60.8 °F 59.0 °F 94% 29.99 in 2.5 mi NNE 12.7 mph - 0.02 in Rain Rain
6:20 PM 60.8 °F 59.0 °F 94% 30.00 in 4.0 mi NNE 9.2 mph - 0.03 in Rain Light Rain
6:25 PM 60.8 °F 59.0 °F 94% 30.00 in 1.8 mi NNE 6.9 mph - 0.09 in Rain Heavy Rain
6:41 PM 60.8 °F 59.0 °F 94% 30.00 in 3.0 mi North 10.4 mph - 0.15 in Rain Rain
6:53 PM 61.0 °F 59.0 °F 93% 30.01 in 6.0 mi North 6.9 mph - 0.16 in Rain Light Rain
7:04 PM 60.8 °F 59.0 °F 94% 30.01 in 10.0 mi North 8.1 mph - 0.00 in Rain Light Rain
7:35 PM 60.8 °F 57.2 °F 88% 30.01 in 4.0 mi NNE 9.2 mph - 0.08 in Rain Rain
7:44 PM 60.8 °F 59.0 °F 94% 30.01 in 4.0 mi NNE 8.1 mph - 0.10 in Rain Rain
7:53 PM 60.8 °F 59.0 °F 94% 30.01 in 4.0 mi NNE 9.2 mph - N/A Rain Light Rain
8:53 PM 61.0 °F 59.0 °F 93% 30.01 in 8.0 mi NNE 10.4 mph - 0.04 in Rain Light Rain
9:49 PM 60.8 °F 59.0 °F 94% 30.02 in 1.8 mi NNE 8.1 mph - 0.17 in Rain Heavy Rain
9:53 PM 60.1 °F 57.9 °F 93% 30.02 in 1.2 mi North 9.2 mph - 0.24 in Rain Heavy Rain
10:00 PM 60.8 °F 57.2 °F 88% 30.03 in 2.5 mi North 8.1 mph - 0.01 in Rain Rain
10:03 PM 60.8 °F 59.0 °F 94% 30.03 in 4.0 mi North 5.8 mph - 0.02 in Rain Light Rain
10:53 PM 60.1 °F 57.9 °F 93% 30.02 in 4.0 mi NNE 6.9 mph - 0.03 in   Overcast
11:53 PM 60.1 °F 57.9 °F 93% 30.00 in 4.0 mi North 8.1 mph - 0.01 in   Overcast